#timestamp,LO_Frequency,Hit,StdDev 
1634601615.5,286047005.3,N
1634601635.4,286047006.0,N
1634601655.2,286047005.6,N
1634601675.1,286047005.7,N
1634601676.0,286047005.7,N
1634601695.8,286047005.4,N
1634601715.6,286047005.8,Y
1634601735.5,286047001.3,P
1634601755.3,286047004.0,P
1634601775.2,286047002.1,N
1634601795.9,286047000.0,N
1634601815.7,286047002.3,N
1634601835.6,286047002.2,N
1634601855.4,286047001.5,N
1634601875.3,286047004.2,Y
1634601895.1,286047004.0,P
1634601896.0,286047004.0,P
1634601915.8,286047000.3,N
1634601935.7,286046998.1,N
1634601955.5,286047000.7,N
1634601975.4,286047002.2,N
1634601995.2,286047000.4,N
1634602015.0,286046999.8,N
1634602015.9,286046999.8,N
1634602035.8,286046999.7,N
1634602055.6,286047001.6,N
1634602075.4,286047004.4,N
1634602095.3,286047003.3,N
1634602115.1,286047005.4,N
1634602135.9,286047004.6,N
1634602155.7,286047005.6,N
1634602175.5,286047003.0,N
1634602195.4,286047005.5,N
1634602215.2,286047005.9,N
1634602235.0,286047004.8,N
1634602235.9,286047004.8,N
1634602255.8,286047005.2,N
1634602275.6,286047004.7,N
1634602295.5,286047005.3,N
1634602315.3,286047003.4,N
1634602335.1,286047002.9,N
1634602355.9,286047005.2,N
1634602375.7,286047003.3,N
1634602395.5,286047004.7,N
1634602415.4,286047005.7,N
1634602435.2,286047004.7,N
1634602455.1,286047005.0,N
1634602456.0,286047005.0,N
1634602475.8,286047004.7,N
1634602495.6,286047005.1,N
1634602515.5,286047007.1,Y
1634602535.3,286047002.1,P
1634602555.2,286047002.0,N
1634602575.9,286047002.0,N
1634602595.7,286047005.9,Y
1634602615.6,286047000.4,P
1634602635.4,286046998.1,N
1634602655.2,286046998.5,N
1634602675.1,286047001.0,N
1634602676.0,286047001.0,N
1634602695.8,286047000.4,N
1634602715.7,286047001.0,N
1634602735.5,286047001.1,N
1634602755.3,286047000.6,N
1634602775.2,286047001.6,N
1634602795.0,286047001.8,N
1634602795.9,286047001.8,N
1634602815.7,286047003.5,N
1634602835.6,286047003.9,N
1634602855.4,286047000.8,N
1634602875.3,286047002.0,N
1634602895.1,286047002.8,N
1634602896.0,286047002.8,N
1634602915.8,286047004.3,N
1634602935.7,286047003.3,N
1634602955.5,286047005.9,Y
1634602975.3,286047004.1,P
1634602995.2,286047004.3,P
1634603015.0,286046999.9,N
1634603015.9,286046999.9,N
1634603035.8,286047001.1,N
1634603055.6,286047000.5,N
1634603075.4,286047000.2,N
1634603095.3,286047000.2,N
1634603115.1,286047000.3,N
1634603135.9,286047000.4,N
1634603155.7,286047000.8,N
1634603175.5,286047000.4,N
1634603195.4,286046999.4,N
1634603215.2,286047000.9,N
1634603235.0,286047002.2,N
1634603235.9,286047002.2,N
1634603255.8,286047000.1,N
1634603275.6,286047001.0,N
1634603295.5,286046999.1,N
1634603315.3,286046998.5,N
1634603335.1,286047000.4,N
1634603355.9,286047002.6,N
1634603375.7,286047001.6,N
1634603395.5,286047001.5,N
1634603415.4,286047003.4,N
1634603435.2,286047005.7,Y
1634603455.1,286047003.1,P
1634603456.0,286047003.1,N
1634603475.8,286047002.5,N
1634603495.6,286047004.1,Y
1634603515.5,286047001.9,P
1634603535.3,286047002.0,P
1634603555.2,286047002.0,P
1634603575.9,286047001.9,Y
1634603595.7,286047000.4,P
1634603615.6,286046999.1,N
1634603635.4,286046998.3,N
1634603655.2,286046999.6,N
1634603675.1,286046999.2,N
1634603676.0,286046999.2,N
1634603695.8,286046998.3,N
1634603715.7,286046997.5,N
1634603735.5,286046998.5,N
1634603755.3,286046999.1,N
1634603775.2,286046998.9,N
1634603795.0,286047001.2,N
1634603795.9,286047001.2,N
1634603815.7,286047000.7,N
1634603835.6,286047001.2,N
1634603855.4,286047000.3,N
1634603875.3,286047001.2,N
1634603895.1,286047002.7,N
1634603896.0,286047002.7,N
1634603915.8,286047001.6,N
1634603935.7,286047004.4,N
1634603955.5,286047002.7,N
1634603975.3,286047000.0,N
1634603995.2,286047000.6,N
1634604015.0,286047000.7,N
1634604015.9,286047000.7,N
1634604035.8,286047000.5,N
1634604055.6,286046999.8,N
1634604075.4,286047000.1,N
1634604095.3,286047002.7,N
1634604115.1,286047002.4,N
1634604135.8,286046999.8,N
1634604155.7,286047004.4,N
1634604175.5,286047002.5,N
1634604195.4,286047002.0,N
1634604215.2,286047002.7,N
1634604235.0,286047001.4,N
1634604235.9,286047001.4,N
1634604255.8,286047000.0,N
1634604275.6,286047001.1,N
1634604295.5,286047000.3,N
1634604315.3,286047000.2,N
1634604335.1,286047002.4,N
1634604355.9,286047001.7,N
1634604375.7,286047001.8,N
1634604395.5,286047001.4,N
1634604415.4,286047002.0,N
1634604435.2,286047002.2,N
1634604455.0,286047000.2,N
1634604456.0,286047000.2,N
1634604475.8,286047002.6,N
1634604495.6,286047001.8,N
1634604515.5,286047001.9,N
1634604535.3,286047002.1,N
1634604555.1,286047002.1,N
1634604575.9,286047001.8,N
1634604595.7,286047003.9,Y
1634604615.6,286047001.9,P
1634604635.4,286047001.4,P
1634604655.2,286047001.4,P
1634604675.1,286047002.8,Y
1634604676.0,286047002.8,P
1634604695.8,286047000.2,N
1634604715.6,286047000.6,N
1634604735.5,286047002.3,N
1634604755.3,286047002.8,N
1634604775.2,286047000.9,N
1634604795.9,286047004.2,Y
1634604815.7,286046999.9,P
1634604835.6,286046998.5,N
1634604855.4,286047001.2,N
1634604875.3,286047000.1,N
1634604895.1,286046998.7,N
1634604896.0,286046998.7,N
1634604915.8,286047000.5,N
1634604935.7,286047000.0,N
1634604955.5,286046998.3,N
1634604975.3,286046998.9,N
1634604995.2,286046998.6,N
1634605015.0,286046998.5,N
1634605015.9,286046998.5,N
1634605035.8,286046998.3,N
1634605055.6,286046999.6,N
1634605075.4,286046998.4,N
1634605095.3,286046998.4,N
1634605115.1,286046998.1,N
1634605135.9,286047000.0,N
1634605155.7,286047000.0,N
1634605175.5,286047002.3,N
1634605195.4,286047002.0,N
